Homestead AFB, FL

9:06 AM EDT on April 25, 2017 (GMT -0400)
Dade County-Homestead Regional

Weather History for KHST - October, 2012

Change the Weather History Date:

Friday, October 5, 2012

  Actual Average Record
Temperature  
Mean Temperature 84 °F -  
Max Temperature 88 °F 87 °F 92 °F (1962)
Min Temperature 81 °F 70 °F 60 °F (1942)
Cooling Degree Days 19    
Growing Degree Days 34 (Base 50)    
Moisture  
Dew Point 75 °F    
Average Humidity 76    
Maximum Humidity 83    
Minimum Humidity 66    
Precipitation  
Precipitation 0.00 in - - ()
Sea Level Pressure  
Sea Level Pressure 30.02 in    
Wind  
Wind Speed 8 mph (ENE)    
Max Wind Speed 12 mph    
Max Gust Speed -    
Visibility 10 miles    
Events      
Averages and records for this station are not official NWS values.
T = Trace of Precipitation, MM = Missing Value Source: NWS Daily Summary

Daily Weather History Graph

Daily Weather History Graph

Search for Another Location

Airport or City:

Trip Planner

Search our weather history database for the weather conditions in past years. The results will help you decide how hot, cold, wet, or windy it might be!

Date:

Astronomy

Oct. 05, 2012 Rise Set
Actual Time 7:15 AM EDT 7:03 PM EDT
Civil Twilight 6:52 AM EDT 7:26 PM EDT
Nautical Twilight 6:26 AM EDT 7:53 PM EDT
Astronomical Twilight 5:59 AM EDT 8:19 PM EDT
Moon 10:52 PM EDT (10/5) 11:54 AM EDT (10/5)
Length of Visible Light 12h 33m
Length of Day
11h 47m
Waning Gibbous, 74% of the Moon is Illuminated
Oct 5
Waning Gibbous
Oct 8
Last Quarter
Oct 15
New
Oct 21
First Quarter
Oct 29
Full

Hourly Weather History & Observations

Time (EDT) Temp. Heat Index Dew Point Humidity Pressure Visibility Wind Dir Wind Speed Gust Speed Precip Events Conditions
12:55 AM 82.0 °F 89.1 °F 75.7 °F 81% 30.10 in 10.0 mi ENE 6.9 mph - N/A   Clear
1:55 AM 81.7 °F 88.5 °F 75.6 °F 82% 30.07 in 10.0 mi ENE 8.1 mph - N/A   Clear
2:55 AM 81.7 °F 88.3 °F 75.2 °F 81% 30.06 in 10.0 mi East 8.1 mph - N/A   Clear
3:55 AM 81.3 °F 87.6 °F 75.4 °F 82% 30.04 in 10.0 mi East 8.1 mph - N/A   Clear
4:55 AM 81.3 °F 87.8 °F 75.7 °F 83% 30.04 in 10.0 mi ENE 8.1 mph - N/A   Partly Cloudy
5:55 AM 81.0 °F 86.9 °F 75.2 °F 83% 30.04 in 10.0 mi East 8.1 mph - N/A   Clear
6:55 AM 81.1 °F 87.4 °F 75.6 °F 83% 30.04 in 10.0 mi East 8.1 mph - N/A   Clear
7:55 AM 82.0 °F 89.1 °F 75.7 °F 81% 30.04 in 10.0 mi East 8.1 mph - N/A   Partly Cloudy
8:55 AM 84.0 °F 92.6 °F 75.6 °F 76% 30.06 in 10.0 mi East 10.4 mph - N/A   Partly Cloudy
9:55 AM 85.3 °F 94.2 °F 75.4 °F 72% 30.06 in 10.0 mi ENE 10.4 mph - N/A   Partly Cloudy
10:55 AM 86.2 °F 95.5 °F 75.2 °F 70% 30.06 in 10.0 mi East 10.4 mph - N/A   Clear
11:55 AM 86.5 °F 95.5 °F 75.0 °F 68% 30.05 in 10.0 mi ESE 11.5 mph - N/A   Partly Cloudy
12:55 PM 86.5 °F 96.4 °F 75.7 °F 70% 30.03 in 10.0 mi East 8.1 mph - N/A   Partly Cloudy
1:55 PM 87.4 °F 97.2 °F 75.2 °F 67% 30.01 in 10.0 mi ENE 11.5 mph - N/A   Clear
2:55 PM 87.1 °F 95.9 °F 74.5 °F 66% 29.99 in 10.0 mi East 6.9 mph - N/A   Clear
3:55 PM 87.3 °F 96.3 °F 74.8 °F 66% 29.96 in 10.0 mi East 9.2 mph - N/A   Clear
4:55 PM 86.5 °F 95.9 °F 75.4 °F 69% 29.95 in 10.0 mi East 9.2 mph - N/A   Clear
5:55 PM 85.6 °F 94.6 °F 75.2 °F 71% 29.96 in 10.0 mi East 9.2 mph - N/A   Clear
6:55 PM 82.9 °F 89.9 °F 74.8 °F 76% 29.96 in 10.0 mi East 5.8 mph - N/A   Clear
7:55 PM 81.9 °F 88.2 °F 74.8 °F 79% 29.98 in 10.0 mi ENE 4.6 mph - N/A   Clear
8:55 PM 81.5 °F 87.4 °F 74.5 °F 79% 29.99 in 10.0 mi ENE 5.8 mph - N/A   Clear
9:55 PM 81.7 °F 87.6 °F 74.3 °F 78% 30.00 in 10.0 mi ENE 5.8 mph - N/A   Partly Cloudy
10:55 PM 81.9 °F 88.2 °F 74.8 °F 79% 30.01 in 10.0 mi ENE 5.8 mph - N/A   Partly Cloudy
11:55 PM 81.3 °F 87.4 °F 75.0 °F 81% 29.99 in 10.0 mi ENE 5.8 mph - N/A   Clear